Temp_Advection
nan nan nan nan nan nan nan nan nan nan nan nan nan nan nan nan nan nan nan nan nan nan nan nan nan nan nan nan nan nan nan nan nan nan nan nan nan nan nan nan nan nan nan nan nan
nan -0 -0 0 0 0 0 0 0 0 0 0 0 0 0 -0 -0 -0 0 0 0 0 0 -0 0 -0 -0 -0 0 -0 -0 -1 0 0 0 -0 -0 -0 -0 -1 -1 -1 -1 -0 nan
nan -0 -0 -0 -0 -0 -0 -0 -0 -0 0 0 0 0 0 -0 -0 -0 -0 0 0 0 0 0 -0 -0 -0 0 0 0 -0 -0 -0 -0 0 0 -0 -0 0 -0 -1 -0 -1 -0 nan
nan -0 -0 -0 -0 -0 -0 -0 -0 -0 -0 0 0 0 0 -0 -0 -0 -0 0 0 0 0 -0 -0 -0 0 -0 0 0 -0 -0 -0 -0 0 -0 -0 0 -0 -1 -0 0 -0 -0 nan
nan -0 -0 -0 -0 -0 -0 -0 -0 -0 -0 -0 0 0 0 -0 -0 0 0 0 0 0 0 0 -0 0 0 -0 -0 0 -0 -0 0 0 -0 0 0 -0 -1 -1 -0 0 -0 -0 nan
nan -0 -0 -0 -0 -0 -0 -0 -0 -0 -0 -0 0 0 1 -0 -1 0 0 0 0 0 0 0 -0 0 0 0 -0 -0 0 -0 -0 0 -0 0 -0 -0 -1 -0 0 0 -0 -0 nan
nan -0 -0 -0 -0 0 0 -0 -0 -0 0 -0 0 0 -0 -0 0 -0 0 0 0 0 0 0 0 0 -0 -0 -0 0 0 -0 -0 -0 -0 -0 0 -0 -2 0 -0 -0 0 0 nan
nan -0 -0 -0 -0 -0 -0 0 0 0 0 0 0 -0 -0 0 0 -0 0 0 0 0 0 0 0 0 -0 -0 -0 0 0 -0 -0 -0 -0 -0 0 -1 -1 -0 -0 -1 -0 0 nan
nan -0 -0 -0 -0 -0 -0 -0 -0 0 0 0 0 -0 -0 -0 -0 0 0 0 0 0 0 0 0 0 0 0 -0 -0 -0 -0 -1 -0 -0 0 -0 -0 -1 -0 -0 -1 -0 -0 nan
nan -0 -0 -0 -0 -0 -0 -0 -0 -0 -0 -0 0 -0 -0 -0 -0 0 0 0 0 0 0 0 0 0 0 0 -0 -0 -0 -0 -0 -0 0 0 -0 -1 -1 -0 -0 -0 -0 -0 nan
nan -0 -0 -0 -1 -1 -1 -1 -1 -0 -0 -0 0 -0 -0 0 0 0 0 0 0 0 0 0 0 -0 -1 -1 -0 0 0 0 -0 -0 0 0 -0 -1 -0 0 -0 -0 -0 -0 nan
nan -0 -0 -0 -1 -1 -1 -1 -1 -0 -1 -1 0 0 -0 -0 0 0 0 0 0 0 -0 0 -0 -1 -0 -0 -0 0 0 -0 -0 -0 0 0 -1 -1 0 -0 -0 -0 -0 -0 nan
nan -1 -0 -0 -0 -1 -1 -1 0 0 -0 -1 -0 0 0 0 -0 -0 0 -0 0 -0 0 -0 -1 -0 -0 -0 0 0 0 -0 -0 -0 -0 0 -0 -1 -0 -0 -0 0 -0 -0 nan
nan -1 -1 -1 -0 -1 -0 0 0 0 0 -0 0 0 0 0 0 -0 -0 -0 0 0 -0 -0 -1 0 0 0 -0 -0 -0 -0 0 -0 0 -0 0 -1 0 0 0 1 0 -0 nan
nan -0 -1 -1 -1 -0 -0 0 0 -0 0 -1 -0 -0 -0 -0 0 0 0 0 0 -0 -0 -0 -0 0 0 -0 -0 -0 -0 0 0 0 -0 0 -0 -1 0 -0 -0 0 1 -0 nan
nan -0 -0 -0 -0 0 0 0 -0 -0 -0 -0 -0 -1 -1 -0 0 -0 0 0 0 0 0 -1 -0 0 -0 -0 0 0 -0 -0 0 -0 -0 -0 -0 -0 -0 -0 -0 0 0 -1 nan
nan -0 -0 -1 -0 0 0 -0 -0 0 -0 -0 -0 -0 -0 -0 -0 0 0 0 -0 -0 -0 -0 -0 -0 -0 -0 -0 -0 -0 -0 -0 0 -0 -0 0 -0 0 -0 -0 -0 0 -0 nan
nan -0 -0 -0 -0 -0 0 -0 0 0 -0 -0 -0 -0 -0 0 -0 -0 -0 -0 -1 -0 -0 -0 -1 -0 -0 -0 -0 0 -0 -0 -0 -0 -0 -0 -0 -0 -0 -0 -0 -0 -1 -1 nan
nan -0 -0 0 0 -0 -0 -0 0 -0 -0 -0 -1 -0 -0 -1 -0 -1 -0 -0 -0 -0 -0 -0 -0 -1 -0 -0 -0 0 -0 -0 0 0 -0 -0 -0 -0 -0 -0 -0 -0 -1 -1 nan
nan -0 -0 -0 0 0 -0 -0 -0 -0 -0 0 -0 -0 -0 -1 -0 -0 0 -0 -0 -0 -0 -0 -0 -1 -0 -0 0 0 -0 -0 -0 -0 -0 -0 0 0 0 -0 -0 -0 -0 -0 nan
nan -0 -0 -0 -0 -1 -0 0 0 -0 -0 -0 -0 -0 -0 -0 -0 -0 -0 -0 -0 -0 -0 -0 -0 -1 -1 -0 -0 -0 -0 -0 0 0 0 -0 -0 -0 -0 -0 -0 -0 -0 -0 nan
nan -0 -1 -0 -1 -1 0 0 -0 -0 -0 -0 -0 -0 -0 -0 -0 -0 -0 -0 -0 -0 -0 -0 0 -0 -1 -1 -0 0 -0 -0 0 -0 -0 -0 -0 -0 -1 -0 -0 -0 -0 -1 nan
nan -0 -1 -1 -1 -0 -0 0 -0 -0 -0 -0 -0 -0 -0 0 -0 -0 -0 0 -1 -0 0 0 0 -0 -1 -0 -1 -0 -0 -1 -0 -0 0 0 0 -0 -1 -1 -1 -0 -1 -1 nan
nan -0 -0 -1 -0 -0 -0 -0 -0 -0 -0 -0 -0 -0 -0 -0 -0 -0 -0 -0 -1 -0 -0 0 0 0 0 -1 -1 -1 -1 -1 -0 -0 -0 -0 -1 -0 -1 -1 -1 -1 -1 -1 nan
nan -0 -0 -0 -0 -0 -0 -0 -0 -0 -0 -0 -0 -0 -0 -0 -0 -0 -0 -1 -1 -1 -1 -0 0 -0 -0 -1 -0 -0 -1 -0 -0 -0 -0 -0 -0 -1 -1 -0 -0 -0 -1 -1 nan
nan -0 -0 -0 -0 -0 -0 -0 -0 -0 -0 -0 -0 -0 -0 0 0 0 -0 -0 -0 -0 -0 -0 0 -0 -1 -1 -0 -0 -1 -0 -0 -0 0 0 0 -0 -0 0 -0 -0 -0 -0 nan
nan nan nan nan nan nan nan nan nan nan nan nan nan nan nan nan nan nan nan nan nan nan nan nan nan nan nan nan nan nan nan nan nan nan nan nan nan nan nan nan nan nan nan nan nan
Wind_Speed
14 14 15 15 15 15 15 13 13 14 15 16 17 17 16 17 15 15 16 9 6 8 6 3 6 7 3 1 2 1 3 3 4 3 6 11 6 6 11 11 16 14 21 25 26
14 14 14 15 15 16 15 15 15 15 16 17 18 17 17 17 18 17 12 10 9 7 5 2 0 4 2 2 1 3 2 5 2 3 4 8 9 15 11 17 24 25 27 25 26
15 15 15 16 16 16 17 17 17 18 19 19 19 18 16 16 16 2 3 9 8 7 4 1 3 3 2 4 4 4 5 3 7 8 10 10 12 14 9 11 25 20 24 23 21
17 17 17 18 19 19 20 20 20 20 20 20 20 19 14 11 5 6 4 7 8 7 4 0 2 2 2 3 6 4 12 14 8 17 17 7 15 12 19 31 35 34 34 31 28
20 20 20 21 21 21 21 21 22 22 22 21 20 17 12 7 11 11 8 10 10 7 4 2 3 2 3 3 9 7 4 12 19 21 24 24 16 11 28 34 31 29 26 27 25
21 22 23 23 23 23 23 22 22 22 22 22 21 17 10 4 12 9 10 12 11 7 3 2 2 4 6 6 3 5 13 15 21 26 14 8 8 6 22 21 22 22 25 26 27
23 23 24 25 25 25 25 24 23 23 22 21 21 12 13 16 13 10 10 10 10 8 6 6 10 6 5 5 8 11 10 9 12 9 8 7 8 9 21 16 14 24 25 27 28
24 25 26 26 26 25 25 24 23 23 22 20 13 8 7 8 9 15 11 9 9 10 9 9 9 8 6 7 7 4 1 4 5 6 4 7 10 7 10 18 24 28 26 25 24
26 27 27 27 26 25 23 23 19 18 17 9 3 5 8 4 7 8 10 9 6 6 6 4 5 5 4 2 4 3 4 6 7 7 5 6 9 7 12 19 21 27 19 14 18
28 28 28 27 26 26 22 17 10 9 7 3 4 5 3 5 9 7 8 10 8 5 5 6 6 2 2 3 4 5 4 6 8 2 2 9 15 20 19 18 23 16 11 10 14
29 29 28 26 24 20 19 10 6 3 6 8 8 12 23 11 7 4 7 12 11 7 4 8 3 8 10 12 6 6 5 7 8 10 6 9 11 17 17 12 13 4 5 11 12
29 30 28 25 18 18 15 8 7 5 13 9 4 6 7 6 3 5 10 7 7 6 6 4 9 15 10 12 9 6 7 10 7 9 4 7 15 19 13 6 5 5 8 11 15
30 30 27 23 11 18 15 13 6 2 4 9 2 2 4 3 2 10 11 6 6 6 9 9 11 2 7 7 8 7 7 6 9 4 4 3 8 5 3 5 20 15 15 12 12
31 30 27 22 8 13 9 13 7 3 4 3 2 3 4 2 2 4 11 5 4 8 7 9 17 15 11 8 6 7 8 9 4 4 3 5 5 7 7 7 7 17 13 16 17
30 28 23 21 12 17 17 11 5 2 5 5 1 2 5 3 5 3 8 5 6 7 4 8 4 5 6 7 4 7 0 3 3 3 3 3 2 7 5 7 6 8 18 21 21
29 25 19 19 16 18 15 9 3 5 4 5 4 9 9 7 4 3 3 8 9 4 6 11 6 4 7 3 3 4 4 6 2 3 1 8 7 5 5 9 6 6 20 26 26
27 22 17 21 21 16 12 4 5 4 6 8 6 9 8 5 4 4 4 1 3 5 3 5 5 1 2 3 2 2 3 3 3 1 6 3 5 6 5 9 14 11 19 24 25
26 17 13 22 17 13 8 4 3 3 4 5 6 13 4 10 6 8 7 3 10 6 3 3 7 1 2 3 3 5 5 3 3 3 3 3 4 3 13 14 21 23 23 24 25
23 12 12 22 14 10 3 5 1 3 4 7 10 4 5 7 5 8 4 5 6 9 4 5 5 10 13 4 2 4 3 4 3 4 1 4 0 4 8 9 11 16 22 23 25
19 8 8 20 11 7 4 5 4 4 4 3 2 5 4 8 7 8 3 5 7 8 5 5 6 6 6 6 6 5 1 3 2 3 4 5 5 7 6 9 9 11 15 21 24
13 6 11 13 7 7 4 2 3 10 11 3 4 5 4 5 5 4 4 3 5 8 10 6 3 5 8 3 5 4 4 3 2 2 3 3 4 7 12 9 9 8 15 18 22
10 3 18 12 7 5 2 1 3 7 13 5 4 3 3 7 5 3 4 3 11 9 5 3 4 5 8 16 18 13 8 2 2 4 2 2 3 9 14 11 12 10 16 14 22
9 6 13 12 4 4 6 2 3 5 4 5 4 4 5 3 5 4 6 4 20 10 5 7 3 5 8 3 7 5 6 10 9 0 3 3 3 16 12 10 12 14 19 18 23
6 4 7 13 9 3 4 3 4 5 2 8 5 3 5 3 5 7 8 7 27 11 17 9 4 6 4 5 9 11 18 13 6 3 6 9 13 19 12 9 12 18 23 22 25
8 4 6 4 5 5 3 4 4 7 8 9 2 5 5 3 10 3 13 11 11 16 8 3 5 3 9 12 13 17 20 20 12 11 8 7 8 12 11 9 14 21 24 28 31
6 8 9 5 8 5 7 5 5 4 3 5 3 8 6 5 4 11 11 6 6 5 4 6 5 10 15 12 13 14 12 15 14 13 11 13 4 5 9 17 26 23 17 23 28
14 11 5 5 10 4 3 3 4 9 7 5 11 10 5 10 14 21 25 28 22 12 14 5 3 3 4 6 12 4 5 10 8 13 10 6 3 8 12 14 17 25 11 22 23
Wind_Direction
10 6 4 3 2 3 2 355 350 349 345 343 340 334 328 320 312 294 281 267 272 304 313 353 36 358 49 1 3 14 57 256 259 358 282 335 12 308 314 295 296 281 266 272 273
0 356 352 350 348 347 348 348 342 338 338 338 337 333 328 321 315 300 273 251 246 270 284 358 321 338 327 204 189 114 167 237 161 297 299 314 321 312 316 299 283 281 275 273 273
352 347 343 340 337 334 333 332 331 331 330 331 333 330 324 324 321 303 343 218 234 253 261 321 20 9 289 207 210 202 213 261 301 307 320 305 300 299 290 282 268 264 276 277 277
349 345 340 336 332 329 327 325 323 322 323 325 328 326 318 317 318 297 297 217 236 246 247 70 36 277 255 250 234 255 246 253 264 289 300 284 295 287 265 260 276 275 277 279 278
348 343 338 335 331 327 324 322 320 319 317 317 319 318 307 283 264 283 268 242 248 248 241 220 275 272 256 316 317 247 262 277 289 291 293 288 266 254 276 281 287 284 277 275 275
344 340 337 333 329 326 323 321 318 316 314 314 314 312 287 233 273 265 253 249 239 228 225 247 289 284 289 256 239 271 291 283 285 279 263 248 260 220 271 291 292 287 275 269 268
343 339 335 331 327 324 321 318 312 310 308 308 308 298 270 277 257 264 264 240 228 225 207 247 244 255 313 287 271 294 297 301 265 244 220 202 294 222 270 295 288 312 297 279 264
343 341 337 333 329 326 324 315 313 307 304 304 301 276 258 280 258 274 272 227 228 226 225 228 246 245 228 283 314 262 197 309 283 188 202 134 275 223 253 293 287 300 300 296 289
345 341 338 335 333 329 328 320 318 306 303 314 289 275 275 280 260 276 257 224 257 241 245 260 263 237 243 192 319 247 238 216 301 193 156 190 267 261 275 281 287 295 301 316 307
346 344 342 339 337 335 336 335 333 319 333 11 223 298 257 338 304 276 231 193 208 252 251 228 223 237 261 142 228 203 232 283 263 275 259 247 258 277 284 289 286 296 328 331 339
351 349 347 344 341 345 345 346 355 17 304 264 287 282 292 290 262 239 191 204 224 222 208 197 184 226 213 214 243 301 245 248 268 272 248 252 263 276 284 274 290 316 18 3 355
352 351 352 350 347 347 3 48 55 320 310 330 354 287 282 256 268 194 202 193 187 220 233 292 242 240 235 246 233 266 289 279 289 273 202 279 279 282 273 238 213 102 61 29 12
352 349 351 351 354 354 16 24 8 321 258 310 300 20 359 342 292 195 195 218 225 225 232 218 242 243 212 253 256 246 228 249 254 306 278 305 299 323 7 145 95 97 72 44 16
351 349 350 359 356 359 7 357 351 354 35 284 50 4 352 1 264 194 205 232 268 233 232 233 253 249 261 254 191 257 233 239 275 25 238 83 279 290 218 108 96 89 71 40 28
351 349 355 2 4 359 344 346 343 17 10 298 48 16 314 258 285 201 215 227 252 263 359 254 285 250 247 229 196 245 6 261 242 246 350 276 139 266 127 138 127 93 68 47 40
348 347 353 4 359 351 340 330 322 45 266 1 57 1 354 294 225 158 195 230 268 295 240 256 272 239 226 232 205 304 332 297 186 140 291 227 175 276 168 162 131 87 63 51 42
346 347 355 5 352 352 344 341 35 118 336 356 343 339 324 280 319 191 208 189 341 327 303 307 256 48 87 353 344 121 51 313 8 163 232 288 126 247 26 121 115 94 65 51 37
345 346 9 2 346 347 344 54 103 20 357 9 321 310 226 35 329 338 342 356 32 352 300 307 330 327 49 223 214 214 182 178 273 219 262 276 235 286 119 97 92 82 71 53 37
347 344 12 359 357 354 351 54 70 14 334 318 313 324 334 18 354 3 48 5 38 32 353 342 286 331 324 261 129 304 226 225 218 265 95 230 243 31 117 88 69 73 65 48 32
350 346 4 349 353 355 61 104 114 49 322 292 325 29 320 337 0 356 293 357 342 7 353 305 298 273 317 327 271 218 327 353 247 245 244 256 220 173 120 79 58 53 56 45 29
352 359 353 351 359 42 86 60 57 22 14 331 342 310 328 349 322 288 6 36 14 333 343 5 251 297 326 282 294 346 310 261 326 252 213 292 311 103 98 73 52 39 40 42 32
360 23 348 1 46 45 63 39 44 351 15 341 5 352 336 347 294 287 21 60 40 12 358 321 287 279 261 275 270 260 287 310 304 305 272 56 321 91 86 71 50 43 25 34 33
357 334 354 8 60 2 329 77 71 12 19 7 338 16 23 288 310 297 341 123 20 7 359 347 323 321 311 307 18 23 341 10 339 62 244 227 207 118 79 59 30 20 8 36 33
10 10 22 53 52 44 6 6 13 10 25 349 284 12 1 330 357 312 312 327 341 346 308 292 239 234 246 320 334 300 312 320 318 270 282 265 295 303 51 46 14 10 14 29 24
30 46 15 342 353 340 342 30 25 9 349 343 358 57 19 308 311 267 332 328 331 314 354 43 268 288 311 310 304 288 291 298 277 250 233 282 279 335 32 38 11 20 27 20 14
47 5 350 307 328 11 11 15 33 338 300 315 22 343 344 294 282 317 313 307 249 295 4 355 294 331 301 290 271 295 278 268 273 271 253 245 242 359 10 18 13 3 15 19 2
39 21 335 332 352 31 351 332 326 328 302 302 311 299 278 279 295 293 283 272 254 267 274 275 262 294 278 331 334 255 13 36 65 47 29 24 26 357 354 353 353 332 347 6 353
Height
1539 1537 1535 1532 1530 1527 1525 1522 1520 1518 1516 1514 1511 1509 1506 1503 1501 1500 1498 1499 1499 1499 1498 1498 1497 1497 1496 1496 1496 1496 1504 1505 1493 1488 1485 1480 1481 1479 1480 1479 1479 1480 1478 1479 1478
1539 1537 1535 1532 1529 1527 1524 1522 1519 1517 1515 1512 1510 1507 1504 1501 1499 1495 1496 1496 1497 1497 1497 1496 1497 1497 1496 1496 1496 1497 1504 1493 1485 1485 1484 1480 1481 1479 1478 1476 1473 1474 1473 1474 1474
1538 1536 1534 1531 1528 1525 1523 1520 1518 1515 1513 1511 1508 1505 1503 1500 1497 1493 1493 1494 1496 1496 1495 1495 1496 1496 1496 1495 1494 1494 1496 1486 1482 1482 1481 1479 1477 1476 1475 1471 1466 1468 1468 1468 1468
1537 1535 1532 1529 1527 1524 1522 1519 1516 1513 1511 1508 1506 1503 1501 1500 1502 1494 1494 1494 1495 1495 1494 1494 1494 1495 1495 1494 1491 1492 1485 1484 1480 1479 1479 1477 1475 1472 1471 1463 1462 1463 1463 1462 1461
1537 1534 1530 1527 1524 1521 1519 1516 1514 1511 1508 1505 1503 1500 1498 1497 1493 1491 1493 1494 1494 1494 1494 1494 1494 1493 1493 1491 1489 1487 1482 1481 1477 1475 1475 1473 1470 1472 1459 1457 1457 1456 1456 1455 1454
1534 1531 1528 1524 1520 1518 1515 1512 1509 1507 1504 1502 1500 1497 1495 1496 1487 1488 1489 1490 1490 1491 1492 1494 1495 1494 1492 1489 1489 1482 1480 1476 1472 1468 1470 1468 1463 1467 1453 1453 1453 1452 1450 1450 1449
1532 1529 1525 1520 1517 1514 1511 1508 1505 1502 1499 1497 1495 1494 1492 1489 1486 1487 1487 1488 1488 1490 1491 1492 1490 1493 1493 1489 1485 1482 1481 1475 1463 1462 1464 1463 1461 1458 1449 1450 1448 1446 1444 1442 1441
1531 1526 1522 1518 1513 1510 1507 1502 1499 1497 1495 1493 1491 1492 1488 1486 1486 1486 1487 1487 1488 1489 1490 1489 1490 1489 1489 1487 1484 1482 1481 1481 1459 1458 1461 1462 1463 1448 1447 1447 1443 1441 1438 1436 1434
1529 1524 1519 1515 1510 1506 1502 1498 1495 1491 1489 1488 1490 1488 1485 1485 1484 1484 1486 1486 1487 1488 1488 1490 1490 1489 1487 1487 1490 1482 1485 1478 1466 1456 1458 1461 1457 1439 1443 1442 1439 1436 1433 1432 1429
1526 1521 1517 1512 1506 1502 1498 1495 1492 1490 1490 1488 1488 1491 1488 1485 1483 1483 1482 1486 1487 1488 1488 1489 1488 1487 1487 1489 1493 1489 1477 1472 1469 1457 1456 1458 1452 1437 1437 1437 1434 1431 1429 1428 1426
1524 1519 1514 1509 1504 1500 1496 1492 1494 1492 1487 1487 1486 1484 1484 1483 1481 1480 1482 1484 1485 1485 1486 1485 1488 1486 1479 1476 1471 1471 1470 1471 1462 1454 1456 1451 1448 1435 1431 1431 1430 1428 1428 1427 1425
1522 1518 1513 1508 1503 1499 1496 1494 1498 1500 1490 1483 1482 1481 1481 1481 1481 1482 1483 1485 1484 1485 1484 1486 1481 1469 1469 1470 1470 1468 1468 1465 1458 1450 1452 1449 1443 1428 1425 1426 1425 1427 1428 1428 1426
1521 1516 1511 1506 1503 1499 1497 1498 1497 1497 1496 1483 1483 1482 1482 1482 1481 1481 1484 1483 1481 1481 1481 1484 1468 1460 1465 1464 1465 1464 1466 1462 1459 1451 1447 1446 1445 1430 1421 1422 1425 1427 1429 1429 1427
1519 1515 1510 1506 1503 1499 1498 1497 1496 1495 1500 1486 1484 1483 1482 1480 1479 1478 1478 1482 1478 1475 1471 1471 1459 1462 1460 1460 1459 1463 1452 1451 1452 1457 1462 1449 1469 1437 1425 1427 1427 1427 1429 1430 1428
1519 1513 1509 1503 1504 1502 1501 1497 1495 1496 1530 1485 1483 1482 1482 1482 1479 1478 1478 1479 1478 1474 1473 1467 1459 1458 1459 1454 1453 1455 1449 1450 1450 1456 1458 1452 1469 1435 1423 1431 1431 1428 1430 1430 1429
1517 1513 1509 1506 1503 1502 1498 1496 1497 1508 1525 1490 1485 1488 1486 1481 1477 1476 1478 1478 1475 1473 1470 1464 1458 1456 1452 1448 1449 1449 1449 1449 1449 1458 1474 1445 1448 1435 1427 1425 1429 1430 1429 1429 1428
1516 1512 1509 1506 1503 1500 1498 1496 1513 1527 1491 1500 1497 1494 1490 1483 1477 1476 1475 1477 1480 1480 1473 1463 1455 1448 1448 1450 1448 1449 1456 1465 1467 1462 1458 1433 1443 1425 1420 1422 1424 1427 1428 1428 1429
1515 1512 1509 1506 1503 1500 1498 1498 1515 1504 1508 1504 1500 1491 1488 1484 1479 1479 1479 1480 1481 1481 1478 1476 1472 1451 1451 1452 1450 1450 1451 1466 1458 1456 1451 1432 1437 1423 1423 1429 1425 1427 1428 1429 1429
1513 1511 1509 1507 1503 1499 1498 1515 1521 1517 1516 1512 1502 1494 1489 1487 1491 1484 1487 1493 1492 1489 1493 1482 1468 1454 1451 1448 1448 1447 1450 1443 1449 1446 1461 1443 1425 1425 1425 1430 1430 1430 1429 1431 1432
1513 1509 1510 1507 1502 1500 1501 1512 1517 1517 1515 1509 1509 1502 1503 1500 1496 1494 1487 1496 1496 1492 1490 1484 1483 1461 1453 1450 1446 1446 1446 1451 1450 1446 1440 1435 1425 1425 1431 1434 1434 1433 1432 1432 1432
1512 1510 1510 1507 1504 1503 1518 1519 1518 1518 1517 1515 1512 1510 1507 1508 1503 1496 1493 1501 1497 1495 1488 1489 1485 1468 1460 1453 1449 1450 1453 1446 1447 1443 1441 1442 1429 1427 1435 1438 1438 1438 1437 1434 1433
1514 1513 1510 1506 1508 1513 1523 1519 1520 1520 1519 1517 1515 1516 1515 1514 1510 1499 1497 1499 1498 1498 1496 1491 1489 1486 1464 1452 1447 1448 1450 1446 1449 1454 1443 1442 1446 1443 1437 1441 1442 1443 1440 1437 1434
1518 1517 1515 1509 1524 1526 1521 1521 1522 1521 1520 1518 1518 1518 1517 1515 1515 1503 1501 1499 1497 1499 1498 1494 1492 1493 1464 1445 1448 1452 1453 1460 1459 1457 1451 1447 1442 1438 1444 1448 1447 1444 1440 1438 1435
1521 1522 1519 1519 1525 1525 1527 1525 1525 1524 1521 1521 1517 1516 1517 1516 1514 1513 1507 1499 1498 1497 1495 1494 1493 1487 1490 1481 1483 1468 1462 1462 1465 1471 1456 1450 1445 1430 1446 1448 1446 1444 1441 1439 1434
1527 1532 1532 1531 1527 1528 1527 1528 1527 1529 1525 1520 1518 1521 1521 1518 1516 1512 1508 1504 1499 1496 1494 1496 1494 1489 1487 1484 1479 1474 1466 1457 1462 1458 1461 1447 1448 1444 1448 1452 1448 1446 1442 1437 1433
1533 1537 1534 1532 1529 1527 1529 1533 1533 1530 1529 1524 1524 1524 1524 1522 1518 1517 1515 1513 1507 1497 1497 1497 1494 1493 1485 1478 1474 1469 1459 1450 1447 1443 1444 1444 1447 1454 1452 1449 1447 1446 1444 1442 1440
1539 1539 1538 1535 1534 1532 1535 1532 1532 1530 1527 1526 1523 1521 1522 1520 1514 1510 1505 1500 1497 1498 1497 1501 1496 1490 1485 1475 1470 1462 1456 1454 1449 1451 1452 1453 1459 1457 1453 1451 1451 1447 1446 1445 1444